Sitka, AK

8:24 PM AKDT on April 25, 2018 (GMT -0800)
Sitka Rocky Gutierrez

Weather History for PASI - June, 2014

Change the Weather History Date:

Tuesday, June 17, 2014

  Actual Average Record
Temperature  
Mean Temperature 52 °F -  
Max Temperature 57 °F 57 °F 80 °F (1950)
Min Temperature 48 °F 47 °F 43 °F (1952)
Degree Days  
Heating Degree Days 14    
Growing Degree Days 2 (Base 50)    
Moisture  
Dew Point 48 °F    
Average Humidity 87    
Maximum Humidity 97    
Minimum Humidity 74    
Precipitation  
Precipitation 0.95 in - - ()
Sea Level Pressure  
Sea Level Pressure 29.84 in    
Wind  
Wind Speed 11 mph (South)    
Max Wind Speed 20 mph    
Max Gust Speed 29 mph    
Visibility 6 miles    
Events Rain    
Averages and records for this station are not official NWS values.
T = Trace of Precipitation, MM = Missing Value Source: NWS Daily Summary

Daily Weather History Graph

Daily Weather History Graph

Search for Another Location

Airport or City:

Astronomy

Jun. 17, 2014 Rise Set
Actual Time 4:05 AM AKDT 9:59 PM AKDT
Civil Twilight 2:57 AM AKDT 11:07 PM AKDT
Nautical Twilight 1:34 AM AKDT 12:30 AM AKDT
Astronomical Twilight Sun does not set Sun does not set
Moon No Moon Rise 10:32 AM AKDT (6/17)
Length of Visible Light 20h 10m
Length of Day
17h 53m
Waning Gibbous, 72% of the Moon is Illuminated
Jun 17
Waning Gibbous
Jun 19
Last Quarter
Jun 27
New
Jul 5
First Quarter
Jul 12
Full

Hourly Weather History & Observations

Time (AKDT) Temp. Dew Point Humidity Pressure Visibility Wind Dir Wind Speed Gust Speed Precip Events Conditions
12:53 AM 52.0 °F 48.0 °F 86% 29.91 in 10.0 mi South 8.1 mph - 0.02 in Rain Light Rain
1:53 AM 52.0 °F 46.9 °F 83% 29.88 in 10.0 mi South 8.1 mph - 0.02 in Rain Light Rain
2:53 AM 53.1 °F 46.0 °F 77% 29.86 in 10.0 mi SE 9.2 mph - 0.02 in Rain Light Rain
3:53 AM 52.0 °F 48.0 °F 86% 29.83 in 9.0 mi South 10.4 mph - 0.03 in Rain Light Rain
4:53 AM 52.0 °F 48.0 °F 86% 29.80 in 6.0 mi ESE 13.8 mph 20.7 mph 0.06 in Rain Light Rain
5:53 AM 53.1 °F 46.9 °F 80% 29.76 in 8.0 mi ESE 17.3 mph 26.5 mph 0.05 in Rain Light Rain
6:53 AM 53.1 °F 48.0 °F 83% 29.75 in 4.0 mi ESE 16.1 mph 24.2 mph 0.09 in Rain Rain
7:53 AM 53.1 °F 46.9 °F 80% 29.74 in 3.0 mi ESE 19.6 mph 28.8 mph N/A Rain Light Rain
8:34 AM 52.0 °F 48.0 °F 86% 29.74 in 2.5 mi ESE 17.3 mph 27.6 mph 0.11 in Rain Light Rain
8:53 AM 52.0 °F 48.0 °F 86% 29.74 in 3.0 mi ESE 18.4 mph 26.5 mph 0.12 in Rain Light Rain
9:32 AM 53.1 °F 48.0 °F 83% 29.74 in 2.0 mi ESE 15.0 mph 26.5 mph 0.03 in Rain Light Rain
9:37 AM 53.1 °F 48.9 °F 86% 29.74 in 1.5 mi ESE 13.8 mph 20.7 mph 0.04 in Rain Light Rain
9:53 AM 52.0 °F 48.9 °F 89% 29.76 in 2.5 mi ESE 13.8 mph - 0.11 in Rain Heavy Rain
10:05 AM 52.0 °F 48.9 °F 89% 29.76 in 1.2 mi SE 11.5 mph - 0.06 in Rain Heavy Rain
10:15 AM 52.0 °F 50.0 °F 93% 29.75 in 2.5 mi ESE 11.5 mph - 0.11 in Rain Rain
10:28 AM 52.0 °F 50.0 °F 93% 29.75 in 3.0 mi ESE 11.5 mph - 0.15 in Rain Light Rain
10:53 AM 52.0 °F 48.9 °F 89% 29.76 in 3.0 mi Variable 6.9 mph - 0.24 in Rain Light Rain
11:20 AM 53.1 °F 51.1 °F 93% 29.78 in 3.0 mi South 16.1 mph 26.5 mph 0.06 in Rain Light Rain
11:24 AM 53.1 °F 51.1 °F 93% 29.78 in 2.5 mi South 17.3 mph 26.5 mph 0.07 in Rain Light Rain
11:36 AM 53.1 °F 51.1 °F 93% 29.78 in 3.0 mi South 13.8 mph 24.2 mph 0.09 in Rain Light Rain
11:45 AM 53.1 °F 51.1 °F 93% 29.78 in 2.5 mi South 12.7 mph 20.7 mph 0.10 in Rain Light Rain
11:53 AM 53.1 °F 51.1 °F 93% 29.79 in 2.5 mi South 13.8 mph 20.7 mph 0.10 in Rain Light Rain
12:06 PM 53.1 °F 51.1 °F 93% 29.79 in 1.8 mi South 18.4 mph 24.2 mph 0.00 in Rain Light Rain
12:19 PM 52.0 °F 51.1 °F 97% 29.80 in 2.0 mi South 15.0 mph 25.3 mph 0.01 in Rain Light Rain
12:29 PM 52.0 °F 51.1 °F 97% 29.80 in 1.5 mi South 15.0 mph - 0.01 in Rain Light Rain
12:36 PM 52.0 °F 51.1 °F 97% 29.81 in 1.5 mi South 12.7 mph - 0.02 in Rain Light Rain
12:43 PM 52.0 °F 51.1 °F 97% 29.81 in 2.0 mi SW 13.8 mph - 0.02 in Rain Light Rain
12:50 PM 51.8 °F 48.2 °F 88% 29.82 in 3.0 mi WSW 13.8 mph - 0.02 in Rain Light Rain
12:53 PM 50.0 °F 48.9 °F 96% 29.83 in 4.0 mi WSW 10.4 mph - 0.03 in Rain Light Rain
12:56 PM 50.0 °F 48.0 °F 93% 29.82 in 4.0 mi SW 9.2 mph - 0.00 in Rain Light Rain
1:06 PM 51.1 °F 50.0 °F 96% 29.83 in 7.0 mi South 5.8 mph - 0.00 in   Overcast
1:11 PM 52.0 °F 50.0 °F 93% 29.83 in 6.0 mi South 6.9 mph - 0.00 in   Overcast
1:24 PM 52.0 °F 51.1 °F 97% 29.84 in 4.0 mi South 5.8 mph - 0.00 in Rain Light Rain
1:53 PM 51.1 °F 48.9 °F 92% 29.86 in 7.0 mi SSW 9.2 mph - 0.00 in Rain Light Rain
2:00 PM 51.1 °F 48.9 °F 92% 29.86 in 7.0 mi SW 10.4 mph - 0.00 in Rain Light Rain
2:22 PM 52.0 °F 48.9 °F 89% 29.88 in 7.0 mi South 6.9 mph - 0.00 in   Overcast
2:44 PM 52.0 °F 46.9 °F 83% 29.89 in 7.0 mi SSW 8.1 mph - 0.00 in   Overcast
2:53 PM 52.0 °F 46.9 °F 83% 29.89 in 7.0 mi South 5.8 mph - 0.00 in   Overcast
3:17 PM 53.1 °F 46.9 °F 80% 29.90 in 10.0 mi South 6.9 mph - N/A   Overcast
3:42 PM 55.0 °F 48.9 °F 80% 29.91 in 10.0 mi SSW 6.9 mph - N/A   Overcast
3:53 PM 55.9 °F 48.9 °F 77% 29.91 in 10.0 mi SSW 6.9 mph - N/A   Overcast
4:53 PM 53.1 °F 48.0 °F 83% 29.93 in 7.0 mi SSW 10.4 mph - 0.00 in Rain Light Rain
5:53 PM 54.0 °F 46.9 °F 77% 29.94 in 10.0 mi SW 9.2 mph - 0.00 in   Mostly Cloudy
6:53 PM 53.1 °F 46.0 °F 77% 29.94 in 10.0 mi SW 12.7 mph - N/A   Mostly Cloudy
7:30 PM 54.0 °F 46.9 °F 77% 29.94 in 10.0 mi SSW 8.1 mph - N/A   Mostly Cloudy
7:53 PM 53.1 °F 45.0 °F 74% 29.94 in 10.0 mi South 9.2 mph - N/A   Partly Cloudy
8:20 PM 53.1 °F 45.0 °F 74% 29.94 in 10.0 mi SSW 9.2 mph - N/A   Mostly Cloudy
8:53 PM 52.0 °F 45.0 °F 77% 29.94 in 10.0 mi SSW 8.1 mph - N/A   Mostly Cloudy
9:53 PM 51.1 °F 44.1 °F 77% 29.94 in 10.0 mi South 10.4 mph - N/A   Mostly Cloudy
10:53 PM 50.0 °F 46.0 °F 86% 29.94 in 10.0 mi SE 8.1 mph - 0.00 in Rain Light Rain
11:00 PM 50.0 °F 46.0 °F 86% 29.94 in 10.0 mi ESE 5.8 mph - 0.00 in Rain Light Rain
11:36 PM 48.9 °F 45.0 °F 86% 29.96 in 8.0 mi SE 4.6 mph - 0.06 in Rain Light Rain
11:53 PM 48.9 °F 45.0 °F 86% 29.96 in 10.0 mi East 4.6 mph - 0.06 in Rain Light Rain